Regional Weather Roundup
Issued by NWS Albany, NY

Home | Current Version | Previous Version | Graphics & Text | Print | Product List | Glossary On
Versions: 1 2 3 4 5 6 7 8 9 10 11 12 13 14 15 16 17 18 19 20 21 22 23 24 25 26 27 28 29 30 31 32 33 34 35
000
ASUS41 KALY 221110
RWRALY

NEW YORK STATE HOURLY WEATHER ROUNDUP
NATIONAL WEATHER SERVICE ALBANY NY
700 AM EDT WED OCT 22 2014

NOTE: "FAIR" INDICATES FEW OR NO CLOUDS BELOW 12,000 FEET WITH NO
SIGNIFICANT WEATHER AND/OR NO OBSTRUCTIONS TO VISIBILITY.

NYZ032-033-038>043-046>054-057>066-NYZ062>081-221200-
EAST


CITY           SKY/WX    TMP DP  RH WIND       PRES   REMARKS
ALBANY         CLOUDY    50  45  83 N12       30.05R
GLENS FALLS    CLOUDY    49  44  83 N10       30.08S
POUGHKEEPSIE   CLOUDY    52  48  86 N12G17    29.97R
NEWBURGH       CLOUDY    50  50 100 NE12      29.97
MONTGOMERY     LGT RAIN  51  48  89 NE20G26   29.96R
WHITE PLAINS   CLOUDY    53  50  89 NE9       29.92R
ISLIP          CLOUDY    57  53  86 NE18      29.87R
NEW YORK CITY  LGT RAIN  56  52  86 N12       29.91R
CENTRAL PARK   LGT RAIN  55  52  89 NE8       29.94R
$$

NYZ005>009-017-018-044>046-055-056-221200-
CENTRAL


CITY           SKY/WX    TMP DP  RH WIND       PRES   REMARKS
FULTON         CLOUDY    46  42  86 N8        30.12R
SYRACUSE       MOCLDY    46  44  91 N8        30.10R FOG
ROME           CLOUDY    48  44  86 NW5       30.10R
ELMIRA         CLOUDY    47  46  97 NE12G23   30.06R
BINGHAMTON     LGT RAIN  47  45  93 NE13      30.02R
MONTICELLO     CLOUDY    48  46  93 NE5       29.97S
$$

NYZ026>034-041>043-221200-
NORTH


CITY           SKY/WX    TMP DP  RH WIND       PRES   REMARKS
WATERTOWN      CLOUDY    45  36  70 NE14      30.16R
FORT DRUM      NOT AVBL
MASSENA        CLOUDY    45  36  70 NE13      30.22R
SARANAC LAKE   FOG       40  40 100 NE10      30.12R VSB 3/4 WCI  33
PLATTSBURGH    CLOUDY    44  41  89 N15       30.17R
$$

NYZ001>004-010>016-019>021-221200-
WEST


CITY           SKY/WX    TMP DP  RH WIND       PRES   REMARKS
NIAGARA FALLS  CLOUDY    45  38  76 N8        30.18R
BUFFALO        CLOUDY    45  39  79 N7        30.17R
DUNKIRK        CLOUDY    46  41  82 NE10      30.17R
JAMESTOWN      CLOUDY    41  39  93 N9        30.13R
WELLSVILLE     CLOUDY    42  40  92 VRB7      30.09R
ROCHESTER      CLOUDY    48  42  80 NE15      30.15R
PENN YAN       CLOUDY    46  44  93 VRB5      30.10R FOG
$$

             KEY
       WCI = WIND CHILL INDEX
       VSB = VISIBILITY
       HX  = HEAT INDEX
$$



USA.gov is the U.S. government's official web portal to all federal, state and local government web resources and services.